Regional Weather Roundup
Issued by NWS

Home | Current Version | Previous Version | Text Only | Print | Product List | Glossary Off
Versions: 1 2 3 4 5 6 7 8 9 10 11 12 13 14 15 16 17 18 19 20 21 22 23 24 25 26 27 28 29 30 31 32 33 34 35 36 37 38 39 40 41 42 43 44 45 46 47 48 49 50

000
ASUS45 KSLC 231210
RWRUT

UTAH REGIONAL WEATHER ROUNDUP
NATIONAL WEATHER SERVICE SALT LAKE CITY UT
500 AM MST THU FEB 23 2017

UTZ001>011-023>025-231300-

NORTHERN UTAH

CITY           SKY/WX    TMP DP  RH WIND       PRES   REMARKS
BRIGHAM CITY     N/A     32  25  74 SW7       29.69S WCI  26
HILL AFB       CLOUDY    28  25  86 NW5       29.68R WCI  23
LOGAN          FLURRIES  29  26  89 E7        29.66F WCI  22
OGDEN          CLOUDY    28  23  81 W6        29.68S WCI  22
SALT LAKE CITY CLOUDY    29  27  92 SE6       29.70R WCI  23
TOOELE VALLEY  MOCLDY    27  19  74 S5        29.71S WCI  21
WENDOVER       CLOUDY    30  19  64 NW16G22   29.73R WCI  19
HEBER CITY     FLURRIES  23  21  93 CALM      29.63S
WEST JORDAN    MOCLDY    28  28 100 CALM      29.70R

$$

UTZ011>015-024>027-231300-

CENTRAL/NORTHEAST UTAH

CITY           SKY/WX    TMP DP  RH WIND       PRES   REMARKS
PROVO AIRPORT  MOCLDY    24  23  96 S7        29.73R WCI  16
MOAB/CANYONLAN PTCLDY    33  27  78 SW8       29.60R WCI  26
DELTA          CLEAR     23  19  86 S10       29.73R WCI  12
PRICE          CLOUDY    28  11  48 W15G21    29.58R WCI  16
ROOSEVELT      CLOUDY    28  21  74 W9        29.55F WCI  20
VERNAL         LGT SNOW  28  25  88 SW8       29.52S FOG     WCI  20

$$

UTZ013>016-019>022-027-231300-

SOUTHERN UTAH

CITY           SKY/WX    TMP DP  RH WIND       PRES   REMARKS
BRYCE CANYON   PTCLDY    12   9  87 W6        29.69R WCI   3
CEDAR CITY     MOCLDY    19  15  84 SW10      29.75S WCI   7
MILFORD        CLEAR     19  17  92 S7        29.75R WCI  10
ST GEORGE      CLOUDY    35  32  88 SE3       29.85R
HANKSVILLE     CLOUDY    34   9  35 W6        29.68R WCI  29
BLANDING       PTCLDY    33  23  67 SW12      29.69R WCI  24

$$

REGIONAL REPORTS     COLORADO/ARIZONA

CITY           SKY/WX    TMP DP  RH WIND       PRES   REMARKS
CRAIG, CO      LGT SNOW  28  24  85 SW14      29.47F FOG     WCI  17
GRAND JUNCTION CLOUDY    36  27  69 NW16      29.56R WCI  26
RIFLE, CO      LGT SNOW  33  31  92 W14       29.50S FOG     WCI  23
MONTROSE, CO   LGT SNOW  34  31  88 W20G28    29.58R FOG     WCI  23
CORTEZ, CO     FLURRIES  34  31  88 W7        29.65R WCI  28
COLORADO CITY    N/A     30  28  93 CALM      29.83R
PAGE, AZ       CLOUDY    40   7  25 W9        29.73S WCI  34
GRAND CANYON   CLOUDY    24  21  88 W7        29.78R WCI  16
KINGMAN, AZ    CLEAR     37  18  46 SW8       29.86R WCI  31
FLAGSTAFF, AZ  CLEAR     26  16  65 SW12      29.78R WCI  16

$$

REGIONAL REPORTS    NEVADA/IDAHO/WYOMING

CITY           SKY/WX    TMP DP  RH WIND       PRES   REMARKS
LAS VEGAS, NV  MOCLDY    45  26  47 VRB3      29.87R
ELY, NY        LGT SNOW  15  12  88 SE3       29.79R FOG
ELKO, NV       CLOUDY    26  17  68 SW10      29.82R WCI  16
POCATELLO, ID  LGT SNOW  27  26  96 W14       29.66F FOG     WCI  16
BURLEY, ID     LGT SNOW  30  26  85 W14       29.67R FOG     WCI  19
FORT BRIDGER,  LGT SNOW  20  20 100 W17       29.58F WCI   6
EVANSTON, WY   CLOUDY    18  14  84 SW9       29.57F WCI   7
ROCK SPRINGS,  LGT SNOW  25  22  88 CALM      29.49F VSB 3/4

$$



USA.gov is the U.S. government's official web portal to all federal, state and local government web resources and services.